Location: Cahas Mountain Overlook
(37.0833°N, 80.1000°W)
Time: 18:46:18
(UTC-04:00)

SR - Pass Details

Date: 14 February 2026
Orbit: 572 x 849 km, 66.7° (Epoch: 12 March)

Event Time Altitude Azimuth Distance (km) Brightness Sun altitude
Rises 15:02:43 0° 328° (NNW) 3,110 ? 29.2°
Reaches altitude 10° 15:05:00 10° 325° (NW) 2,230 ? 28.9°
Maximum altitude 15:10:04 63° 246° (WSW) 859 ? 28.2°
Drops below altitude 10° 15:15:28 10° 166° (SSE) 2,383 ? 27.4°
Sets 15:18:00 0° 163° (SSE) 3,340 ? 27.1°
